Flag for U.S.A. Weather past 2 weeks in Mason, Ohio, U.S.A.

Now
69 °F

Low clouds.


Feels Like: 69 °F
Forecast: 62 / 84 °F
Wind: No wind

Location: Butler County Regional Airport

Current Time: May 28, 2015 at 10:18:48 AM

Latest Report: May 28, 2015 at 9:53 AM


Visibility: 6 mi

Pressure: 30.22 "Hg

Humidity: 84%

Dew point: 64 °F

Location of MasonLocation

Historic Weather in Mason — Graph

°F

Mason temperature yesterday

Maximum temperature yesterday: 84 °F (at 3:53 PM)
Minimum temperature yesterday: 67 °F (at 5:53 AM)
Average temperature yesterday: 74 °F

Past Weeks' High & Low Weather Summary

 TemperatureHumidityPressure
High85 °F (May 24, 3:53 PM)100% (May 19, 12:53 AM)30.42 "Hg (May 19, 12:53 AM)
Low38 °F (May 22, 5:53 AM)26% (May 23, 5:53 PM)29.98 "Hg (May 26, 2:53 PM)
Average66 °F70%30.15 "Hg
* Reported May 13 8:53 AM — May 28 8:53 AM, Mason, Weather by CustomWeather, © 2015

Note: Actual official high and low records may vary slightly from our data, if they occured in-between our weather recording intervals... More about our weather records

Advertising

Mason weather history for previous 24 hours

 ConditionsComfort  
Time TempWeatherWind HumidityBarometerVisibility
8:53 AM
Thu, May 28
67 °FLow clouds.No wind90%30.22 "Hg7 mi
7:53 AM65 °FFog.No wind94%30.20 "Hg6 mi
6:53 AM60 °FFog.No wind96%30.19 "Hg6 mi
5:53 AM59 °FFog.No wind96%30.18 "Hg6 mi
4:53 AM61 °FPassing clouds.No wind93%30.16 "Hg7 mi
3:53 AM62 °FClear.No wind93%30.16 "Hg9 mi
2:53 AM64 °FClear.3 mph94%30.15 "Hg10 mi
1:53 AM65 °FClear.No wind91%30.15 "Hg10 mi
12:53 AM67 °FClear.3 mph85%30.14 "Hg10 mi
11:53 PM
Wed, May 27
69 °FPassing clouds.3 mph79%30.14 "Hg10 mi
10:53 PM69 °FClear.6 mph76%30.12 "Hg10 mi
9:53 PM71 °FSunny.3 mph68%30.10 "Hg10 mi
8:53 PM74 °FPassing clouds.10 mph60%30.09 "Hg10 mi
7:53 PM77 °FSunny.13 mph56%30.06 "Hg10 mi
6:53 PM79 °FPassing clouds.10 mph54%30.07 "Hg10 mi
5:53 PM82 °FSunny.8 mph51%30.06 "Hg10 mi
4:53 PM83 °FPassing clouds.10 mph51%30.04 "Hg10 mi
3:53 PM84 °FPassing clouds.8 mph53%30.06 "Hg10 mi
2:53 PM82 °FPassing clouds.9 mph55%30.08 "Hg10 mi
1:53 PM81 °FPassing clouds.9 mph56%30.09 "Hg10 mi
12:53 PM80 °FScattered clouds.7 mph58%30.10 "Hg10 mi
11:53 AM78 °FPartly sunny.12 mph62%30.11 "Hg10 mi
10:53 AM77 °FScattered clouds.8 mph64%30.11 "Hg10 mi
Weather by CustomWeather, © 2015

See weather overviewHow to use our weather pages